REGA4 LSGL-LSGL

Flight info

Callsign REGA4
Flight time 0h 0m
Altitude 1500
Route ROP
Aircraft EC30/L-SDGRY/S

Departure

Time 2026-05-06 11:05
Airport Lausanne la Blécherette Airport (LSGL)

Arrival

Time 2026-05-06 11:05
Airport Lausanne la Blécherette Airport (LSGL)
Time Latitude Longitude Altitude Speed Heading
2026-05-06 11:02 46.54659 6.61840 2008 ft 0 kts 270°
2026-05-06 11:04 46.54636 6.61842 2059 ft 13 kts 186°
2026-05-06 11:04 46.54438 6.61951 2345 ft 49 kts 176°
2026-05-06 11:04 46.53997 6.61971 2599 ft 86 kts 187°
2026-05-06 11:04 46.53358 6.62295 2490 ft 117 kts 119°
2026-05-06 11:05 46.53308 6.63067 2482 ft 115 kts 81°
2026-05-06 11:05 46.53605 6.64086 2584 ft 106 kts 49°
2026-05-06 11:05 46.54140 6.64196 2813 ft 63 kts 291°
2026-05-06 11:05 46.53801 6.64006 2618 ft 32 kts 279°
2026-05-06 11:06 46.53805 6.64017 2441 ft 27 kts 146°
2026-05-06 11:06 46.53741 6.64108 2144 ft 3 kts 288°
2026-05-06 11:06 46.53753 6.64095 2134 ft 0 kts 269°
2026-05-06 11:07 46.53706 6.64146 2267 ft 19 kts 167°
2026-05-06 11:07 46.53384 6.64240 2337 ft 68 kts 184°
2026-05-06 11:08 46.52886 6.64068 2308 ft 66 kts 225°
2026-05-06 11:08 46.52539 6.64056 2291 ft 49 kts 153°
2026-05-06 11:08 46.52426 6.64191 2246 ft 24 kts
2026-05-06 11:08 46.52489 6.64020 2110 ft 38 kts 270°
2026-05-06 11:09 46.52512 6.64009 2024 ft 30 kts 135°
2026-05-06 11:09 46.52472 6.64192 1929 ft 9 kts 244°
2026-05-06 11:09 46.52444 6.64114 1941 ft 7 kts 341°
2026-05-06 11:09 46.52453 6.64134 1878 ft 0 kts 326°